Location: Middle Street
(51.7167°N, 0.0333°E)
Time: 03:18:25
(UTC+00:00)

SAR-Lupe-1 - Pass Details

Date: 20 January 2021
Orbit: 481 x 485 km, 98.2° (Epoch: 22 February)

Event Time Altitude Azimuth Distance (km) Brightness Sun altitude
Exits shadow 18:43:12 67° 134° (SE) 527 4.0 -20.4°
Drops below altitude 10° 18:46:32 10° 188° (S) 1,659 6.9 -21.0°
Sets 18:48:36 0° 191° (S) 2,534 7.9 -21.3°
